Athol, ID (83801)

11:44 AM PST on February 06, 2016 (GMT -0800)
Spirit Lake | | Change Station
CLOSE
Current Station
Personal Weather Station
Location: Spirit Lake, ID
Elevation: 2598 ft
Nearby Weather Stations

Elev 2598 ft 47.95 °N, 116.83 °W | Updated 5 minutes ago

Partly Cloudy
Partly Cloudy
39.0 °F
Feels Like 39 °F
N
2.2
Wind Variable Wind from WNW

Today
High -- | Low -- °F
--% Chance of Precip.
Yesterday
High -- | Low -- °F
Precip. -- in
Pressure 30.33 in
Visibility 10.0 miles
Clouds Few 3000 ft
Windchill 39 °F
Dew Point 31 °F
Humidity 74%
Rainfall 0.01 in
Snow Depth Not available.
7:07 AM 4:54 PM
Waning Crescent, 4% visible
METAR KCOE 061935Z AUTO 23011KT 10SM FEW030 04/00 A3033 RMK AO1
Pressure 30.33 in
Visibility 10.0 miles
Clouds Few 3000 ft
Windchill 39 °F
Dew Point 31 °F
Humidity 74%
Rainfall 0.01 in
Snow Depth Not available.
7:07 AM 4:54 PM
Waning Crescent, 4% visible
METAR KCOE 061935Z AUTO 23011KT 10SM FEW030 04/00 A3033 RMK AO1

10-Day Weather Forecast

Almanac

Astronomy

Feb. 06, 2016 Rise Set
Actual Time
Civil Twilight
Nautical Twilight
Astronomical Twilight
Moon
Length of Visible Light
Length of Day
Tomorrow will be .
, % of the Moon is Illuminated

Today's Extremes

State Highs State Lows

Community

WunderPhotos

Upload Photos

1,891,037 photos uploaded!

WunderBlog® & News

Nearby

Air Quality

  Air Quality AQ Index Pollutant
Not available.

Snow Depth

Station Depth Elevation

Earthquake Activity

City Distance Mag. Time & Date
Minimum magnitude displayed is 2.5.

Coastal Water Temperatures

Place Temperature

Stations

Nearby Weather Stations

Station Location Temp. Windchill Dew Point Humidity Wind Precip. Elev Updated Type
                   

Watches & Warnings

There are currently no watches in effect.